| time (UTC) | temp F | wind direction | speed MPH | gust MPH | rain 1hr in | rain 24hr in | rain mn in | humidity % | barometer mb |
| 20260503002808 | 75 | 308 | 4.0 | 6.0 | 0.00 | 0.00 | 0.00 | 39 | 1016.6 |
| 20260503001308 | 76 | 274 | 5.0 | 12.0 | 0.00 | 0.00 | 0.00 | 38 | 1016.6 |
| 20260503000308 | 77 | 278 | 3.0 | 6.0 | 0.00 | 0.00 | 0.00 | 37 | 1016.5 |
| 20260502235808 | 77 | 244 | 3.0 | 6.0 | 0.00 | 0.00 | 0.00 | 37 | 1016.6 |
| 20260502235308 | 76 | 262 | 3.0 | 5.0 | 0.00 | 0.00 | 0.00 | 37 | 1016.6 |
| 20260502234808 | 77 | 263 | 5.0 | 12.0 | 0.00 | 0.00 | 0.00 | 36 | 1016.7 |
| 20260502233308 | 77 | 253 | 1.0 | 3.0 | 0.00 | 0.00 | 0.00 | 36 | 1016.7 |
| 20260502231808 | 77 | 333 | 3.0 | 9.0 | 0.00 | 0.00 | 0.00 | 34 | 1016.8 |
| 20260502225308 | 78 | 294 | 5.0 | 12.0 | 0.00 | 0.00 | 0.00 | 35 | 1016.7 |
| 20260502221307 | 78 | 277 | 5.0 | 12.0 | 0.00 | 0.00 | 0.00 | 33 | 1017.1 |
| 20260502220807 | 78 | 227 | 3.0 | 7.0 | 0.00 | 0.00 | 0.00 | 33 | 1017.2 |
| 20260502220308 | 77 | 218 | 3.0 | 12.0 | 0.00 | 0.00 | 0.00 | 34 | 1017.2 |
| 20260502213808 | 78 | 326 | 6.0 | 12.0 | 0.00 | 0.00 | 0.00 | 33 | 1017.3 |
| 20260502212807 | 77 | 20 | 3.0 | 10.0 | 0.00 | 0.00 | 0.00 | 35 | 1017.5 |
| 20260502211807 | 77 | 350 | 7.0 | 12.0 | 0.00 | 0.00 | 0.00 | 35 | 1017.7 |
| 20260502211307 | 77 | 25 | 3.0 | 7.0 | 0.00 | 0.00 | 0.00 | 35 | 1017.7 |
| 20260502210807 | 76 | 48 | 4.0 | 8.0 | 0.00 | 0.00 | 0.00 | 34 | 1017.7 |
| 20260502210307 | 76 | 26 | 6.0 | 10.0 | 0.00 | 0.00 | 0.00 | 34 | 1017.9 |
| 20260502204807 | 77 | 14 | 5.0 | 10.0 | 0.00 | 0.00 | 0.00 | 32 | 1018.0 |
| 20260502204308 | 77 | 328 | 5.0 | 8.0 | 0.00 | 0.00 | 0.00 | 35 | 1018.2 |
| 20260502203807 | 77 | 9 | 5.0 | 9.0 | 0.00 | 0.00 | 0.00 | 34 | 1018.2 |
| 20260502203307 | 77 | 26 | 4.0 | 10.0 | 0.00 | 0.00 | 0.00 | 33 | 1018.2 |
| 20260502200807 | 75 | 263 | 3.0 | 8.0 | 0.00 | 0.00 | 0.00 | 32 | 1018.7 |
| 20260502194307 | 74 | 275 | 3.0 | 6.0 | 0.00 | 0.00 | 0.00 | 35 | 1018.7 |
| 20260502193307 | 75 | 265 | 5.0 | 12.0 | 0.00 | 0.00 | 0.00 | 35 | 1018.9 |
| 20260502191807 | 75 | 32 | 5.0 | 9.0 | 0.00 | 0.00 | 0.00 | 34 | 1019.1 |
| 20260502190307 | 75 | 335 | 4.0 | 7.0 | 0.00 | 0.00 | 0.00 | 35 | 1019.1 |
| 20260502185807 | 74 | 299 | 4.0 | 7.0 | 0.00 | 0.00 | 0.00 | 35 | 1019.4 |
| 20260502185307 | 74 | 283 | 5.0 | 8.0 | 0.00 | 0.00 | 0.00 | 36 | 1019.4 |
| 20260502183307 | 73 | 336 | 5.0 | 12.0 | 0.00 | 0.00 | 0.00 | 35 | 1019.4 |
| 20260502182807 | 74 | 267 | 3.0 | 7.0 | 0.00 | 0.00 | 0.00 | 32 | 1019.6 |
| 20260502181807 | 74 | 310 | 5.0 | 7.0 | 0.00 | 0.00 | 0.00 | 34 | 1019.5 |
| 20260502181307 | 73 | 65 | 3.0 | 6.0 | 0.00 | 0.00 | 0.00 | 34 | 1019.6 |
| 20260502170307 | 73 | 331 | 1.0 | 6.0 | 0.00 | 0.00 | 0.00 | 36 | 1020.4 |
| 20260502161307 | 70 | 309 | 3.0 | 8.0 | 0.00 | 0.00 | 0.00 | 39 | 1020.4 |
| 20260502151306 | 65 | 321 | 3.0 | 6.0 | 0.00 | 0.00 | 0.00 | 55 | 1020.1 |
| 20260502150807 | 64 | 303 | 5.0 | 7.0 | 0.00 | 0.00 | 0.00 | 55 | 1020.1 |
| 20260502121806 | 52 | 345 | 5.0 | 7.0 | 0.00 | 0.00 | 0.00 | 84 | 1018.4 |
| 20260502115806 | 52 | 341 | 5.0 | 7.0 | 0.00 | 0.00 | 0.00 | 87 | 1017.8 |
| 20260502114806 | 52 | 320 | 2.0 | 5.0 | 0.00 | 0.00 | 0.00 | 88 | 1017.8 |
| 20260502113805 | 52 | 321 | 3.0 | 5.0 | 0.00 | 0.00 | 0.00 | 88 | 1017.7 |
| 20260502113306 | 52 | 315 | 2.0 | 3.0 | 0.00 | 0.00 | 0.00 | 87 | 1017.7 |
| 20260502112805 | 52 | 313 | 1.0 | 2.0 | 0.00 | 0.00 | 0.00 | 88 | 1017.7 |
| 20260502112306 | 52 | 310 | 1.0 | 2.0 | 0.00 | 0.00 | 0.00 | 88 | 1017.6 |
| 20260502111805 | 52 | 309 | 1.0 | 3.0 | 0.00 | 0.00 | 0.00 | 87 | 1017.6 |
| 20260502110306 | 52 | 299 | 2.0 | 5.0 | 0.00 | 0.00 | 0.00 | 87 | 1017.7 |
| 20260502105805 | 52 | 297 | 3.0 | 5.0 | 0.00 | 0.00 | 0.00 | 87 | 1017.7 |
| 20260502104805 | 52 | 278 | 2.0 | 6.0 | 0.00 | 0.00 | 0.00 | 87 | 1017.6 |
| 20260502102806 | 53 | 313 | 2.0 | 3.0 | 0.00 | 0.00 | 0.00 | 86 | 1016.9 |
| 20260502102306 | 53 | 313 | 1.0 | 3.0 | 0.00 | 0.00 | 0.00 | 86 | 1016.9 |
| 20260502101806 | 53 | 313 | 3.0 | 3.0 | 0.00 | 0.00 | 0.00 | 86 | 1016.9 |
| 20260502101305 | 53 | 313 | 2.0 | 3.0 | 0.00 | 0.00 | 0.00 | 85 | 1016.9 |
| 20260502091306 | 54 | 307 | 3.0 | 6.0 | 0.00 | 0.00 | 0.00 | 84 | 1017.1 |
| 20260502090806 | 54 | 313 | 4.0 | 6.0 | 0.00 | 0.00 | 0.00 | 84 | 1017.1 |
| 20260502070806 | 56 | 290 | 3.0 | 5.0 | 0.00 | 0.00 | 0.00 | 79 | 1017.1 |
| 20260502065805 | 56 | 284 | 3.0 | 6.0 | 0.00 | 0.00 | 0.00 | 79 | 1017.1 |
| 20260502065306 | 56 | 273 | 3.0 | 5.0 | 0.00 | 0.00 | 0.00 | 79 | 1017.2 |
| 20260502064305 | 56 | 307 | 2.0 | 5.0 | 0.00 | 0.00 | 0.00 | 80 | 1017.2 |
| 20260502062306 | 55 | 261 | 2.0 | 3.0 | 0.00 | 0.00 | 0.00 | 80 | 1017.2 |
| 20260502061807 | 55 | 254 | 2.0 | 3.0 | 0.00 | 0.00 | 0.00 | 80 | 1017.2 |
| 20260502061305 | 56 | 254 | 2.0 | 3.0 | 0.00 | 0.00 | 0.00 | 80 | 1017.2 |
| 20260502060805 | 56 | 254 | 2.0 | 3.0 | 0.00 | 0.00 | 0.00 | 79 | 1017.2 |
| 20260502055804 | 56 | 253 | 2.0 | 3.0 | 0.00 | 0.00 | 0.00 | 79 | 1017.2 |
| 20260502054805 | 57 | 253 | 1.0 | 3.0 | 0.00 | 0.00 | 0.00 | 78 | 1017.2 |
| 20260502054305 | 57 | 253 | 1.0 | 3.0 | 0.00 | 0.00 | 0.00 | 79 | 1017.2 |
| 20260502053805 | 57 | 253 | 2.0 | 3.0 | 0.00 | 0.00 | 0.00 | 78 | 1017.2 |
| 20260502052306 | 57 | 253 | 2.0 | 5.0 | 0.00 | 0.00 | 0.00 | 79 | 1017.2 |
| 20260502050930 | 56 | 169 | 1.0 | 3.0 | 0.00 | 0.00 | 0.00 | 79 | 1017.2 |
| 20260502050305 | 57 | 169 | 1.0 | 3.0 | 0.00 | 0.00 | 0.00 | 79 | 1017.2 |
| 20260502045804 | 57 | 169 | 1.0 | 2.0 | 0.00 | 0.00 | 0.00 | 78 | 1017.2 |
| 20260502044804 | 57 | 138 | 1.0 | 2.0 | 0.00 | 0.00 | 0.00 | 77 | 1017.2 |
| 20260502040804 | 58 | 138 | 1.0 | 2.0 | 0.00 | 0.00 | 0.00 | 76 | 1017.0 |
| 20260502035306 | 59 | 138 | 1.0 | 2.0 | 0.00 | 0.00 | 0.00 | 74 | 1017.0 |
| 20260502033305 | 60 | 138 | 1.0 | 2.0 | 0.00 | 0.00 | 0.00 | 73 | 1017.0 |
| 20260502032804 | 60 | 138 | 2.0 | 3.0 | 0.00 | 0.00 | 0.00 | 72 | 1016.9 |
| 20260502032306 | 60 | 138 | 1.0 | 3.0 | 0.00 | 0.00 | 0.00 | 72 | 1016.9 |
| 20260502031804 | 60 | 138 | 1.0 | 2.0 | 0.00 | 0.00 | 0.00 | 71 | 1016.9 |
| 20260502024304 | 61 | 138 | 2.0 | 3.0 | 0.00 | 0.00 | 0.00 | 69 | 1016.5 |
| 20260502022805 | 61 | 138 | 1.0 | 3.0 | 0.00 | 0.00 | 0.00 | 69 | 1016.4 |
| 20260502021304 | 61 | 138 | 1.0 | 3.0 | 0.00 | 0.00 | 0.00 | 68 | 1016.1 |
| 20260502015804 | 62 | 138 | 3.0 | 5.0 | 0.00 | 0.00 | 0.00 | 67 | 1015.6 |
| 20260502015305 | 62 | 136 | 2.0 | 5.0 | 0.00 | 0.00 | 0.00 | 67 | 1015.6 |
| 20260502014805 | 62 | 135 | 3.0 | 6.0 | 0.00 | 0.00 | 0.00 | 67 | 1015.5 |
| 20260502014309 | 62 | 118 | 2.0 | 5.0 | 0.00 | 0.00 | 0.00 | 67 | 1015.1 |
| 20260502013808 | 62 | 118 | 2.0 | 5.0 | 0.00 | 0.00 | 0.00 | 66 | 1015.1 |
| 20260502013308 | 62 | 115 | 1.0 | 3.0 | 0.00 | 0.00 | 0.00 | 66 | 1015.1 |
| 20260502011808 | 62 | 140 | 3.0 | 6.0 | 0.00 | 0.00 | 0.00 | 65 | 1014.9 |
| 20260502011308 | 62 | 142 | 3.0 | 7.0 | 0.00 | 0.00 | 0.00 | 65 | 1014.9 |
| 20260502005808 | 63 | 155 | 5.0 | 6.0 | 0.00 | 0.00 | 0.00 | 64 | 1014.8 |
| 20260502005308 | 63 | 136 | 3.0 | 5.0 | 0.00 | 0.00 | 0.00 | 64 | 1014.6 |